Location: Pasadena-CA
(34.1440°N, 118.1100°W)
Time: 12:43:55
(UTC-07:00)

Oscar 19 - Pass Details

Date: 06 July 2022
Orbit: 773 x 790 km, 98.8° (Epoch: 17 August)

Event Time Altitude Azimuth Distance (km) Brightness Sun altitude
Rises 04:08:34 0° 16° (NNE) 3,254 14.9 -17.2°
Reaches altitude 10° 04:10:54 10° 19° (NNE) 2,323 14.1 -16.9°
Maximum altitude 04:16:00 66° 102° (ESE) 841 10.9 -16.1°
Enters shadow 04:20:30 13° 183° (S) 2,096 12.5 -15.4°
